Regional Weather Roundup
Issued by NWS

Home | Current Version | Previous Version | Graphics & Text | Print | Product List | Glossary On
Versions: 1 2 3 4 5 6 7 8 9 10 11 12 13 14 15 16 17 18 19 20 21 22 23 24 25 26 27 28 29 30 31 32 33 34 35 36 37 38 39 40 41 42 43 44 45 46 47 48 49 50
000
ASUS43 KIND 301159
RWRIN

WEATHER ROUNDUP FOR INDIANA
NATIONAL WEATHER SERVICE INDIANAPOLIS IN
800 AM EDT TUE SEP 30 2014

NOTE: "FAIR" INDICATES FEW OR NO CLOUDS BELOW 12,000 FEET WITH NO
SIGNIFICANT WEATHER AND/OR OBSTRUCTIONS TO VISIBILITY.

* - STATION DOES NOT REPORT WEATHER SUCH AS PRECIPITATION OR FOG.

+ - STATION NOT QUALITY CONTROLLED BY THE NATIONAL WEATHER SERVICE.
    USE DATA WITH CAUTION...ESPECIALLY DEWPOINT AND RELATIVE
    HUMIDITY OBSERVATIONS.

INZ001>003-010>013-019-020-301300-
NORTHWEST INDIANA

CITY           SKY/WX    TMP DP  RH WIND       PRES   REMARKS
VALPARAISO     NOT AVBL

$$

LMZ046-743>745-301300-
SOUTHERN LAKE MICHIGAN

STATION/POSITION TIME  TEMP WIND        PRES
                       AIR  DIR/SP/G
                 (UTC) (F)  (DEG/KT/KT) (MB)
MICHIGAN CITY    1100   54  350/ 17/ 22   N/A

$$

INZ004-005-014>016-021>024-301300-
NORTH CENTRAL INDIANA

CITY           SKY/WX    TMP DP  RH WIND       PRES   REMARKS
ELKHART        CLOUDY    48  45  87 N6        30.02R
PERU/GRISSOM   CLOUDY    54  54 100 NW10      29.98S
SOUTH BEND     NOT AVBL
WARSAW +       CLOUDY    48  46  93 N10       30.00R

$$

INZ006>009-017-018-025>027-301300-
NORTHEAST INDIANA

CITY           SKY/WX    TMP DP  RH WIND       PRES   REMARKS
ANGOLA *+      CLOUDY    48  46  93 N8        29.99R
FORT WAYNE     CLOUDY    54  51  90 N14       29.97R
6HR MIN TEMP:  54; 6HR MAX TEMP:  61; 6HR PCP: TRACE;


$$

INZ028-029-035-036-043>045-051>053-301300-
WEST CENTRAL INDIANA

CITY           SKY/WX    TMP DP  RH WIND       PRES   REMARKS
GREENCASTLE +  FOG       55  55 100 N9        29.98R VSB 3/4
LAFAYETTE      CLOUDY    54  50  86 N7        30.00S
6HR MIN TEMP:  54; 6HR MAX TEMP:  60;

TERRE HAUTE    CLOUDY    58  57  97 N10       29.97R FOG
6HR MIN TEMP:  54; 6HR MAX TEMP:  59;


$$

INZ030>032-037>040-046>048-054>057-064-065-301300-
CENTRAL INDIANA

CITY           SKY/WX    TMP DP  RH WIND       PRES   REMARKS
COLUMBUS       CLEAR     50  48  93 CALM      29.97R
FRANKFORT +    CLOUDY    55  55 100 N9        30.00S
INDIANAPOLIS   CLOUDY    58  56  93 N7        29.96S FOG
6HR MIN TEMP:  57; 6HR MAX TEMP:  61;

-EAGLE CREEK   CLOUDY    58  55  90 N8        29.97R FOG
6HR MIN TEMP:  58; 6HR MAX TEMP:  63;

KOKOMO *+      CLOUDY    55  50  82 N10       29.99S
MT COMFORT *+  CLOUDY    57 N/A N/A N7        29.97S
SHELBYVILLE    FOG       58  56  93 N6        29.96R VSB 1/4
6HR MIN TEMP:  52; 6HR MAX TEMP:  58;


$$

INZ033-034-041-042-049-050-058-059-301300-
EAST CENTRAL INDIANA

CITY           SKY/WX    TMP DP  RH WIND       PRES   REMARKS
MUNCIE         CLOUDY    58  56  93 NW8       29.96S FOG
6HR MIN TEMP:  56; 6HR MAX TEMP:  62;


$$

INZ060-061-067>069-081>083-085>088-301300-
SOUTHWEST INDIANA

CITY           SKY/WX    TMP DP  RH WIND       PRES   REMARKS
EVANSVILLE     CLEAR     57  54  89 CALM      29.96R
6HR MIN TEMP:  57; 6HR MAX TEMP:  61;


$$

INZ062-063-066-070>080-084-089>092-301300-
SOUTH CENTRAL AND SOUTHEAST INDIANA

CITY           SKY/WX    TMP DP  RH WIND       PRES   REMARKS
BLOOMINGTON    CLEAR     54  52  93 CALM      29.96S
6HR MIN TEMP:  52; 6HR MAX TEMP:  58;

SEYMOUR +      CLEAR     50  50 100 CALM      29.96

$$




USA.gov is the U.S. government's official web portal to all federal, state and local government web resources and services.